Lid_Strength_Index
12 14 14 13 13 15 15 16 17 15 13 14 14 14 12 12 14 14 13 13 12 12 10 12 12 11 11 11 10 9 6 6 7 7 7 7 8 9 10 10 9 9 8 8
14 15 11 12 13 14 15 16 16 14 13 14 14 14 12 12 13 12 11 12 11 12 13 13 13 12 11 10 9 8 7 7 7 7 8 9 10 12 11 11 11 10 10 10
14 13 11 12 13 14 15 16 16 15 14 15 16 17 15 13 13 13 12 11 10 11 12 14 14 13 12 11 9 8 7 8 8 9 11 12 12 12 12 13 13 13 12 12
13 12 12 13 14 13 16 13 14 15 16 18 16 19 16 14 13 14 11 12 12 12 13 14 14 13 12 11 9 8 7 8 9 11 10 10 10 11 12 13 14 14 13 13
14 13 13 13 13 12 14 13 14 15 17 18 19 19 17 16 15 13 11 11 12 13 13 14 14 12 12 11 9 9 7 8 10 10 10 9 10 14 14 15 15 15 15 15
14 12 12 12 12 12 12 14 15 16 17 20 18 17 18 17 15 14 13 12 13 14 14 14 14 13 13 11 10 9 8 10 11 10 10 10 14 14 15 15 16 16 16 16
14 13 12 12 13 13 14 15 18 20 21 20 19 19 16 14 14 13 12 12 14 14 15 15 15 14 13 11 10 9 8 11 11 11 11 12 13 14 14 15 15 17 17 17
16 17 13 12 12 14 15 15 19 23 23 20 19 20 16 14 13 14 13 14 15 14 14 16 15 14 13 12 10 8 10 11 11 11 12 13 13 13 13 14 15 15 16 16
17 16 14 14 14 12 16 17 14 18 25 23 19 17 15 14 14 13 14 14 14 14 14 16 15 14 13 12 10 9 10 11 12 12 13 13 13 14 14 15 16 16 16 17
14 17 16 15 13 14 15 14 17 19 24 25 20 20 17 15 14 14 14 13 14 14 16 16 15 14 13 12 11 11 11 12 12 12 13 14 14 14 15 16 16 17 17 17
13 15 17 16 16 16 16 16 17 16 19 22 24 18 15 14 14 14 13 14 14 14 15 16 15 14 14 13 14 13 12 13 14 14 15 14 15 15 16 16 17 17 17 18
12 14 19 17 16 15 16 16 16 18 20 19 20 17 14 13 14 14 14 14 14 14 15 16 15 15 15 15 15 14 13 13 14 14 15 15 15 16 16 17 17 17 18 18
11 14 18 17 16 16 16 15 13 15 16 17 20 16 15 15 14 14 14 14 14 15 16 16 16 16 15 15 15 14 14 13 14 15 15 15 16 17 17 17 18 18 18 19
9 14 15 17 16 15 17 16 14 13 16 16 16 14 13 15 15 14 14 14 14 15 15 16 17 16 15 15 15 15 15 14 15 15 15 16 16 16 17 17 18 18 19 19
10 15 15 14 15 16 16 15 14 15 14 15 14 14 12 11 13 12 13 12 14 14 15 16 16 16 16 16 15 14 14 15 15 16 16 16 16 16 17 18 18 18 19 19
10 15 14 15 14 14 15 14 14 14 13 13 13 13 10 11 11 12 11 11 12 13 14 14 15 16 16 15 15 15 14 15 15 15 16 16 16 17 17 18 18 19 19 19
12 14 15 17 13 14 17 14 13 14 12 13 15 12 10 11 12 12 11 11 12 12 12 12 13 14 14 15 14 15 15 15 15 15 16 16 16 17 18 18 18 18 19 19
14 15 14 17 15 21 13 12 11 11 11 12 12 11 10 10 11 11 12 12 11 11 11 12 12 13 14 15 15 15 15 16 16 16 16 16 16 17 18 18 18 18 19 19
10 13 15 17 18 16 14 15 14 13 13 10 11 10 10 9 12 10 11 10 11 11 12 12 12 12 14 15 15 16 16 16 16 16 17 17 16 17 18 18 18 18 19 19
10 11 14 16 19 20 14 16 15 12 15 13 10 10 10 12 14 10 12 14 13 13 14 14 14 14 15 16 16 16 17 17 17 16 16 16 16 16 17 17 17 18 18 18
14 14 16 16 17 15 14 15 14 16 15 17 13 10 14 13 12 13 13 14 15 15 15 15 16 16 16 17 16 17 17 17 16 16 16 16 16 17 16 16 17 17 17 18
15 16 16 15 17 19 13 14 14 13 15 16 15 14 15 13 14 15 14 14 14 15 15 16 17 17 18 17 16 17 17 17 16 16 16 16 16 16 16 16 16 17 17 18
15 13 15 15 15 13 13 12 12 13 13 14 14 13 13 14 14 14 15 15 15 17 16 18 17 18 18 17 17 17 17 16 16 15 15 15 15 15 15 16 16 16 16 17
12 10 12 13 11 9 11 11 12 14 13 14 15 15 14 13 14 15 16 15 14 17 16 17 16 17 17 16 15 14 15 15 14 15 15 15 15 15 14 14 14 15 15 16
12 12 13 13 12 12 12 12 11 12 13 15 15 14 13 13 15 14 16 16 15 16 17 17 16 16 18 17 18 15 14 13 13 14 14 14 13 14 15 16 14 14 15 13
10 12 13 13 10 10 11 11 11 12 12 13 14 15 15 14 14 15 17 16 17 17 18 17 18 19 20 20 22 22 21 17 16 16 15 15 16 16 17 18 19 15 15 15